Time,TemperatureF,DewpointF,PressureIn,WindDirection,WindDirectionDegrees,WindSpeedMPH,WindSpeedGustMPH,Humidity,HourlyPrecipIn,Conditions,Clouds,dailyrainin,SoftwareType,DateUTC
2013-02-24 00:00:00,35.4,32.2,29.95,SE,135,6.9,6.9,88,0.01,,,0.01,WUHU216HW,2013-02-24 05:00:00,
2013-02-24 00:05:00,35.6,32.4,29.95,ESE,113,5.6,6.9,88,0.01,,,0.00,WUHU216HW,2013-02-24 05:05:00,
2013-02-24 00:10:00,35.6,32.4,29.95,East,90,4.0,6.9,88,0.01,,,0.00,WUHU216HW,2013-02-24 05:10:00,
2013-02-24 00:15:00,35.6,32.4,29.94,ENE,68,6.9,6.9,88,0.01,,,0.00,WUHU216HW,2013-02-24 05:15:00,
2013-02-24 00:20:00,35.6,32.4,29.94,ESE,113,4.0,6.9,88,0.01,,,0.00,WUHU216HW,2013-02-24 05:20:00,
2013-02-24 00:25:00,35.6,32.4,29.94,SE,135,2.5,6.9,88,0.01,,,0.00,WUHU216HW,2013-02-24 05:25:00,
2013-02-24 00:30:00,35.8,32.6,29.94,East,90,6.9,6.9,88,0.01,,,0.00,WUHU216HW,2013-02-24 05:30:00,
2013-02-24 00:35:00,35.8,32.6,29.94,SE,135,4.7,6.9,88,0.01,,,0.00,WUHU216HW,2013-02-24 05:35:00,
2013-02-24 00:40:00,35.8,32.6,29.93,SE,135,4.7,6.9,88,0.01,,,0.00,WUHU216HW,2013-02-24 05:40:00,
2013-02-24 01:31:00,35.9,32.9,29.91,SE,135,5.1,5.1,89,0.00,,,0.00,WUHU216HW,2013-02-24 06:31:00,
2013-02-24 01:36:00,35.9,32.9,29.91,ENE,68,4.0,7.6,89,0.00,,,0.00,WUHU216HW,2013-02-24 06:36:00,
2013-02-24 01:41:00,35.9,32.9,29.90,ESE,113,9.8,9.8,89,0.00,,,0.00,WUHU216HW,2013-02-24 06:41:00,
2013-02-24 01:46:00,35.9,32.9,29.90,South,180,5.4,9.8,89,0.00,,,0.00,WUHU216HW,2013-02-24 06:46:00,
2013-02-24 01:51:00,35.8,32.8,29.90,NE,45,2.5,9.8,89,0.00,,,0.00,WUHU216HW,2013-02-24 06:51:00,
2013-02-24 01:56:00,35.8,32.8,29.90,NNE,23,2.5,7.2,89,0.01,,,0.01,WUHU216HW,2013-02-24 06:56:00,
2013-02-24 02:01:00,35.8,32.8,29.90,NNE,23,4.9,5.8,89,0.01,,,0.01,WUHU216HW,2013-02-24 07:01:00,
2013-02-24 02:06:00,35.8,32.8,29.89,WSW,248,3.8,5.1,89,0.01,,,0.01,WUHU216HW,2013-02-24 07:06:00,
2013-02-24 02:11:00,35.8,32.8,29.89,West,270,2.5,5.1,89,0.01,,,0.01,WUHU216HW,2013-02-24 07:11:00,
2013-02-24 02:16:00,35.8,32.8,29.88,NNW,338,2.5,4.0,89,0.01,,,0.01,WUHU216HW,2013-02-24 07:16:00,
2013-02-24 02:21:00,35.8,32.8,29.88,East,90,3.1,3.8,89,0.01,,,0.01,WUHU216HW,2013-02-24 07:21:00,
2013-02-24 02:26:00,35.8,32.8,29.88,NW,315,3.4,5.8,89,0.01,,,0.01,WUHU216HW,2013-02-24 07:26:00,
2013-02-24 02:31:00,35.8,32.8,29.88,SSE,158,3.6,5.8,89,0.01,,,0.01,WUHU216HW,2013-02-24 07:31:00,
2013-02-24 02:36:00,35.8,32.8,29.87,South,180,2.0,3.8,89,0.01,,,0.01,WUHU216HW,2013-02-24 07:36:00,
2013-02-24 02:41:00,35.8,32.8,29.87,South,180,3.4,4.0,89,0.01,,,0.01,WUHU216HW,2013-02-24 07:41:00,
2013-02-24 02:46:00,35.8,32.8,29.87,NW,315,4.3,4.7,89,0.01,,,0.01,WUHU216HW,2013-02-24 07:46:00,
2013-02-24 02:51:00,35.8,33.1,29.86,WNW,293,2.9,4.7,90,0.01,,,0.01,WUHU216HW,2013-02-24 07:51:00,
2013-02-24 02:56:00,35.8,33.1,29.86,WNW,293,4.0,4.7,90,0.00,,,0.01,WUHU216HW,2013-02-24 07:56:00,
2013-02-24 03:01:00,35.9,33.2,29.86,ESE,113,2.2,4.9,90,0.00,,,0.01,WUHU216HW,2013-02-24 08:01:00,
2013-02-24 03:06:00,35.8,33.1,29.86,North,0,3.4,4.9,90,0.00,,,0.01,WUHU216HW,2013-02-24 08:06:00,
2013-02-24 03:11:00,35.8,33.1,29.85,NW,315,2.9,4.7,90,0.01,,,0.02,WUHU216HW,2013-02-24 08:11:00,
2013-02-24 03:16:00,35.8,33.1,29.85,SW,225,4.0,4.7,90,0.01,,,0.02,WUHU216HW,2013-02-24 08:16:00,
2013-02-24 03:21:00,35.8,33.1,29.85,SSE,158,4.5,4.5,90,0.01,,,0.02,WUHU216HW,2013-02-24 08:21:00,
2013-02-24 03:26:00,35.9,33.2,29.84,West,270,2.7,4.5,90,0.01,,,0.02,WUHU216HW,2013-02-24 08:26:00,
2013-02-24 03:31:00,35.9,33.2,29.85,South,180,3.4,4.5,90,0.01,,,0.02,WUHU216HW,2013-02-24 08:31:00,
2013-02-24 03:36:00,35.9,33.2,29.84,NW,315,2.0,4.0,90,0.01,,,0.02,WUHU216HW,2013-02-24 08:36:00,
2013-02-24 03:41:00,35.9,33.2,29.84,West,270,2.9,3.8,90,0.01,,,0.02,WUHU216HW,2013-02-24 08:41:00,
2013-02-24 03:46:00,36.1,33.4,29.84,SW,225,2.7,3.8,90,0.01,,,0.02,WUHU216HW,2013-02-24 08:46:00,
2013-02-24 03:51:00,36.1,33.4,29.84,NW,315,4.5,4.5,90,0.01,,,0.02,WUHU216HW,2013-02-24 08:51:00,
2013-02-24 03:56:00,36.1,33.4,29.83,WSW,248,4.7,5.1,90,0.01,,,0.02,WUHU216HW,2013-02-24 08:56:00,
2013-02-24 04:01:00,36.1,33.4,29.83,WNW,293,3.8,5.1,90,0.01,,,0.02,WUHU216HW,2013-02-24 09:01:00,
2013-02-24 04:06:00,36.1,33.4,29.83,South,180,2.5,5.8,90,0.01,,,0.03,WUHU216HW,2013-02-24 09:06:00,
2013-02-24 04:11:00,36.3,33.6,29.83,SW,225,3.1,5.8,90,0.01,,,0.03,WUHU216HW,2013-02-24 09:11:00,
2013-02-24 04:16:00,36.3,33.6,29.83,WNW,293,3.1,5.1,90,0.01,,,0.03,WUHU216HW,2013-02-24 09:16:00,
2013-02-24 04:21:00,36.3,33.6,29.82,South,180,3.1,5.1,90,0.01,,,0.03,WUHU216HW,2013-02-24 09:21:00,
2013-02-24 04:26:00,36.3,33.6,29.82,NW,315,4.0,4.9,90,0.01,,,0.03,WUHU216HW,2013-02-24 09:26:00,
2013-02-24 04:31:00,36.3,33.6,29.82,NNW,338,4.7,4.9,90,0.01,,,0.03,WUHU216HW,2013-02-24 09:31:00,
2013-02-24 04:36:00,36.3,33.6,29.82,SW,225,3.4,4.9,90,0.01,,,0.03,WUHU216HW,2013-02-24 09:36:00,
2013-02-24 04:41:00,36.3,33.6,29.82,North,0,4.0,5.1,90,0.01,,,0.03,WUHU216HW,2013-02-24 09:41:00,
2013-02-24 04:46:00,36.1,33.4,29.82,NW,315,3.4,5.1,90,0.02,,,0.04,WUHU216HW,2013-02-24 09:46:00,
2013-02-24 04:51:00,36.1,33.4,29.82,West,270,4.0,5.1,90,0.02,,,0.04,WUHU216HW,2013-02-24 09:51:00,
2013-02-24 04:56:00,36.1,33.4,29.82,NNW,338,2.7,4.7,90,0.02,,,0.04,WUHU216HW,2013-02-24 09:56:00,
2013-02-24 05:01:00,36.1,33.4,29.82,NW,315,4.0,5.4,90,0.01,,,0.04,WUHU216HW,2013-02-24 10:01:00,
2013-02-24 05:06:00,36.1,33.4,29.82,WNW,293,2.7,5.4,90,0.01,,,0.04,WUHU216HW,2013-02-24 10:06:00,
2013-02-24 05:11:00,36.1,33.4,29.82,NW,315,2.2,4.3,90,0.02,,,0.05,WUHU216HW,2013-02-24 10:11:00,
2013-02-24 05:16:00,36.1,33.4,29.81,West,270,2.9,4.9,90,0.02,,,0.05,WUHU216HW,2013-02-24 10:16:00,
2013-02-24 05:21:00,36.1,33.4,29.81,NNW,338,2.5,4.9,90,0.02,,,0.05,WUHU216HW,2013-02-24 10:21:00,
2013-02-24 05:26:00,36.1,33.4,29.82,WNW,293,2.5,4.0,90,0.02,,,0.05,WUHU216HW,2013-02-24 10:26:00,
2013-02-24 05:31:00,36.1,33.4,29.81,WNW,293,4.7,4.7,90,0.02,,,0.05,WUHU216HW,2013-02-24 10:31:00,
2013-02-24 05:36:00,35.9,33.2,29.81,NW,315,3.1,4.7,90,0.02,,,0.05,WUHU216HW,2013-02-24 10:36:00,
2013-02-24 05:41:00,35.9,33.2,29.81,West,270,2.7,4.7,90,0.01,,,0.05,WUHU216HW,2013-02-24 10:41:00,
2013-02-24 05:46:00,35.9,33.2,29.82,NNW,338,2.9,4.3,90,0.01,,,0.05,WUHU216HW,2013-02-24 10:46:00,
2013-02-24 05:51:00,35.9,33.2,29.82,ESE,113,2.7,4.9,90,0.01,,,0.05,WUHU216HW,2013-02-24 10:51:00,
2013-02-24 05:56:00,35.9,33.2,29.82,WSW,248,2.9,4.9,90,0.02,,,0.06,WUHU216HW,2013-02-24 10:56:00,
2013-02-24 06:01:00,35.8,33.1,29.82,NNE,23,3.8,4.3,90,0.02,,,0.06,WUHU216HW,2013-02-24 11:01:00,
2013-02-24 06:06:00,35.8,33.2,29.82,SSW,203,4.3,4.9,90,0.02,,,0.06,WUHU216HW,2013-02-24 11:06:00,
2013-02-24 06:11:00,35.9,33.2,29.82,ESE,113,3.1,4.9,90,0.01,,,0.06,WUHU216HW,2013-02-24 11:11:00,
2013-02-24 06:16:00,35.9,33.2,29.82,NW,315,2.5,4.9,90,0.01,,,0.06,WUHU216HW,2013-02-24 11:16:00,
2013-02-24 06:21:00,35.8,33.1,29.82,NE,45,3.6,4.9,90,0.01,,,0.06,WUHU216HW,2013-02-24 11:21:00,
2013-02-24 06:26:00,35.8,33.4,29.81,NW,315,4.0,4.7,91,0.01,,,0.06,WUHU216HW,2013-02-24 11:26:00,
2013-02-24 07:00:00,35.8,33.1,29.81,North,0,2.5,2.5,90,0.01,,,0.06,WUHU216HW,2013-02-24 12:00:00,
2013-02-24 07:05:00,35.9,33.2,29.80,WSW,248,2.7,6.3,90,0.01,,,0.07,WUHU216HW,2013-02-24 12:05:00,
2013-02-24 07:10:00,35.9,33.2,29.81,NW,315,3.4,6.3,90,0.01,,,0.07,WUHU216HW,2013-02-24 12:10:00,
2013-02-24 07:15:00,35.9,33.2,29.81,NW,315,4.7,5.4,90,0.01,,,0.07,WUHU216HW,2013-02-24 12:15:00,
2013-02-24 07:20:00,36.0,33.3,29.81,West,270,4.0,4.9,90,0.01,,,0.07,WUHU216HW,2013-02-24 12:20:00,
2013-02-24 07:25:00,36.0,33.6,29.81,NW,315,4.9,5.4,91,0.01,,,0.07,WUHU216HW,2013-02-24 12:25:00,
2013-02-24 07:30:00,36.0,33.6,29.81,NNW,338,4.0,5.4,91,0.01,,,0.07,WUHU216HW,2013-02-24 12:30:00,
2013-02-24 07:35:00,36.1,33.7,29.81,North,0,4.0,4.9,91,0.01,,,0.07,WUHU216HW,2013-02-24 12:35:00,
2013-02-24 07:40:00,35.9,33.5,29.81,SW,225,3.4,5.4,91,0.01,,,0.08,WUHU216HW,2013-02-24 12:40:00,
2013-02-24 07:45:00,35.9,33.5,29.81,West,270,2.9,5.4,91,0.01,,,0.08,WUHU216HW,2013-02-24 12:45:00,
2013-02-24 07:50:00,36.2,33.8,29.81,West,270,2.5,4.7,91,0.01,,,0.08,WUHU216HW,2013-02-24 12:50:00,
2013-02-24 07:55:00,36.0,33.3,29.81,South,180,2.9,4.7,90,0.01,,,0.08,WUHU216HW,2013-02-24 12:55:00,
2013-02-24 08:00:00,36.0,33.3,29.80,West,270,2.5,4.7,90,0.02,,,0.09,WUHU216HW,2013-02-24 13:00:00,
2013-02-24 08:05:00,36.1,33.4,29.80,NNE,23,3.4,4.9,90,0.02,,,0.09,WUHU216HW,2013-02-24 13:05:00,
2013-02-24 08:10:00,35.9,33.2,29.79,NW,315,4.7,4.9,90,0.03,,,0.10,WUHU216HW,2013-02-24 13:10:00,
2013-02-24 08:15:00,35.9,33.2,29.79,SW,225,3.8,5.4,90,0.03,,,0.10,WUHU216HW,2013-02-24 13:15:00,
2013-02-24 08:20:00,35.9,33.2,29.79,NW,315,3.6,5.4,90,0.03,,,0.10,WUHU216HW,2013-02-24 13:20:00,
2013-02-24 08:25:00,36.0,33.3,29.79,South,180,4.0,5.8,90,0.04,,,0.11,WUHU216HW,2013-02-24 13:25:00,
2013-02-24 08:30:00,36.0,33.3,29.79,WSW,248,3.4,5.8,90,0.04,,,0.11,WUHU216HW,2013-02-24 13:30:00,
2013-02-24 08:35:00,36.1,33.6,29.79,WSW,248,4.5,5.8,91,0.04,,,0.11,WUHU216HW,2013-02-24 13:35:00,
2013-02-24 08:40:00,36.1,33.4,29.79,West,270,3.4,5.8,90,0.03,,,0.11,WUHU216HW,2013-02-24 13:40:00,
2013-02-24 08:45:00,36.1,33.4,29.78,NW,315,2.9,5.1,90,0.03,,,0.11,WUHU216HW,2013-02-24 13:45:00,
2013-02-24 08:50:00,36.1,33.7,29.78,NW,315,4.0,5.8,91,0.04,,,0.12,WUHU216HW,2013-02-24 13:50:00,
2013-02-24 08:55:00,36.1,33.1,29.78,SSW,203,2.7,5.8,89,0.04,,,0.12,WUHU216HW,2013-02-24 13:55:00,
2013-02-24 09:00:00,36.1,33.1,29.79,SW,225,2.7,5.1,89,0.03,,,0.12,WUHU216HW,2013-02-24 14:00:00,
2013-02-24 09:05:00,35.9,33.0,29.79,WNW,293,4.5,5.1,89,0.02,,,0.12,WUHU216HW,2013-02-24 14:05:00,
2013-02-24 09:10:00,35.9,33.0,29.78,East,90,3.4,4.7,89,0.03,,,0.13,WUHU216HW,2013-02-24 14:10:00,
2013-02-24 09:15:00,36.0,33.0,29.78,ENE,68,3.4,4.7,89,0.03,,,0.13,WUHU216HW,2013-02-24 14:15:00,
2013-02-24 09:20:00,35.4,32.4,29.78,WSW,248,2.0,4.9,89,0.02,,,0.13,WUHU216HW,2013-02-24 14:20:00,
2013-02-24 09:25:00,35.1,32.2,29.78,West,270,2.2,4.9,89,0.02,,,0.13,WUHU216HW,2013-02-24 14:25:00,
2013-02-24 09:30:00,34.5,31.6,29.77,NW,315,2.2,3.8,89,0.02,,,0.13,WUHU216HW,2013-02-24 14:30:00,
2013-02-24 09:35:00,34.6,31.6,29.77,NNW,338,3.6,4.3,89,0.02,,,0.13,WUHU216HW,2013-02-24 14:35:00,
2013-02-24 09:40:00,34.6,31.9,29.76,SW,225,1.8,4.3,90,0.02,,,0.13,WUHU216HW,2013-02-24 14:40:00,
2013-02-24 09:45:00,34.6,31.9,29.76,NW,315,2.7,4.7,90,0.02,,,0.14,WUHU216HW,2013-02-24 14:45:00,
2013-02-24 09:50:00,34.6,32.0,29.76,SSW,203,2.0,4.7,90,0.02,,,0.14,WUHU216HW,2013-02-24 14:50:00,
2013-02-24 09:55:00,34.7,32.0,29.76,West,270,3.4,4.7,90,0.02,,,0.14,WUHU216HW,2013-02-24 14:55:00,
2013-02-24 10:00:00,34.6,31.9,29.76,NNE,23,1.8,4.7,90,0.02,,,0.14,WUHU216HW,2013-02-24 15:00:00,
2013-02-24 10:05:00,34.6,31.9,29.76,SE,135,2.0,4.7,90,0.01,,,0.14,WUHU216HW,2013-02-24 15:05:00,
2013-02-24 10:10:00,34.6,31.9,29.77,NW,315,1.3,3.1,90,0.01,,,0.14,WUHU216HW,2013-02-24 15:10:00,
2013-02-24 10:15:00,34.6,32.0,29.77,WSW,248,0.4,4.0,90,0.01,,,0.14,WUHU216HW,2013-02-24 15:15:00,
2013-02-24 10:20:00,34.7,32.0,29.76,SW,225,2.7,4.0,90,0.01,,,0.14,WUHU216HW,2013-02-24 15:20:00,
2013-02-24 10:25:00,34.5,31.8,29.76,West,270,2.2,4.0,90,0.01,,,0.14,WUHU216HW,2013-02-24 15:25:00,
2013-02-24 10:30:00,34.5,31.8,29.76,NNW,338,1.8,4.0,90,0.01,,,0.14,WUHU216HW,2013-02-24 15:30:00,
2013-02-24 10:35:00,34.5,31.8,29.75,ESE,113,2.0,4.3,90,0.01,,,0.14,WUHU216HW,2013-02-24 15:35:00,
2013-02-24 10:40:00,34.3,31.7,29.75,SW,225,2.5,4.3,90,0.00,,,0.14,WUHU216HW,2013-02-24 15:40:00,
2013-02-24 10:45:00,34.3,31.7,29.75,SE,135,1.8,2.9,90,0.00,,,0.14,WUHU216HW,2013-02-24 15:45:00,
2013-02-24 10:50:00,34.6,31.9,29.75,North,0,1.6,2.5,90,0.00,,,0.14,WUHU216HW,2013-02-24 15:50:00,
2013-02-24 10:55:00,34.4,31.7,29.74,ESE,113,1.3,2.5,90,0.00,,,0.14,WUHU216HW,2013-02-24 15:55:00,
2013-02-24 11:00:00,34.2,31.5,29.75,SSE,158,1.3,2.2,90,0.01,,,0.15,WUHU216HW,2013-02-24 16:00:00,
2013-02-24 11:05:00,34.2,31.5,29.75,SSE,158,0.9,1.6,90,0.01,,,0.15,WUHU216HW,2013-02-24 16:05:00,
2013-02-24 11:10:00,34.2,31.5,29.75,SW,225,1.1,1.6,90,0.01,,,0.15,WUHU216HW,2013-02-24 16:10:00,
2013-02-24 11:15:00,34.2,31.5,29.74,ESE,113,1.1,1.3,90,0.01,,,0.15,WUHU216HW,2013-02-24 16:15:00,
2013-02-24 11:20:00,34.0,31.4,29.74,SW,225,0.9,1.8,90,0.01,,,0.15,WUHU216HW,2013-02-24 16:20:00,
2013-02-24 11:25:00,34.0,31.4,29.74,SE,135,1.1,2.5,90,0.01,,,0.15,WUHU216HW,2013-02-24 16:25:00,
2013-02-24 11:30:00,34.0,31.4,29.74,SSE,158,1.8,2.5,90,0.01,,,0.15,WUHU216HW,2013-02-24 16:30:00,
2013-02-24 11:35:00,34.1,31.4,29.74,SW,225,0.9,2.0,90,0.01,,,0.15,WUHU216HW,2013-02-24 16:35:00,
2013-02-24 11:40:00,34.1,31.4,29.74,West,270,0.9,2.2,90,0.02,,,0.16,WUHU216HW,2013-02-24 16:40:00,
2013-02-24 11:45:00,34.0,31.3,29.74,NW,315,0.9,2.5,90,0.02,,,0.16,WUHU216HW,2013-02-24 16:45:00,
2013-02-24 11:50:00,34.0,31.3,29.74,SE,135,1.1,3.4,90,0.02,,,0.16,WUHU216HW,2013-02-24 16:50:00,
2013-02-24 11:55:00,33.8,31.1,29.74,SE,135,1.6,3.4,90,0.02,,,0.16,WUHU216HW,2013-02-24 16:55:00,
2013-02-24 12:00:00,33.8,31.1,29.74,SE,135,1.1,2.7,90,0.01,,,0.16,WUHU216HW,2013-02-24 17:00:00,
2013-02-24 12:05:00,33.8,31.1,29.74,SSE,158,0.4,2.2,90,0.01,,,0.16,WUHU216HW,2013-02-24 17:05:00,
2013-02-24 12:10:00,33.8,31.1,29.74,South,180,0.7,1.8,90,0.01,,,0.16,WUHU216HW,2013-02-24 17:10:00,
2013-02-24 12:15:00,33.8,31.1,29.74,SSW,203,0.9,1.8,90,0.01,,,0.16,WUHU216HW,2013-02-24 17:15:00,
2013-02-24 12:20:00,33.8,31.1,29.74,South,180,1.6,2.0,90,0.01,,,0.16,WUHU216HW,2013-02-24 17:20:00,
2013-02-24 12:25:00,33.6,30.9,29.74,SSE,158,0.2,2.0,90,0.01,,,0.16,WUHU216HW,2013-02-24 17:25:00,
2013-02-24 12:30:00,33.6,30.9,29.74,NW,315,1.8,1.8,90,0.01,,,0.16,WUHU216HW,2013-02-24 17:30:00,
2013-02-24 12:35:00,33.6,30.9,29.74,NNE,23,1.1,2.0,90,0.01,,,0.16,WUHU216HW,2013-02-24 17:35:00,
2013-02-24 12:40:00,33.6,30.9,29.74,NNW,338,0.7,2.0,90,0.00,,,0.16,WUHU216HW,2013-02-24 17:40:00,
2013-02-24 12:45:00,33.6,30.9,29.74,WNW,293,0.2,1.6,90,0.00,,,0.16,WUHU216HW,2013-02-24 17:45:00,
2013-02-24 12:50:00,33.4,30.7,29.74,West,270,0.7,1.6,90,0.00,,,0.16,WUHU216HW,2013-02-24 17:50:00,
2013-02-24 12:55:00,33.4,30.7,29.73,WNW,293,0.4,2.5,90,0.01,,,0.18,WUHU216HW,2013-02-24 17:55:00,
2013-02-24 13:00:00,33.4,30.7,29.73,WNW,293,1.1,2.5,90,0.01,,,0.18,WUHU216HW,2013-02-24 18:00:00,
2013-02-24 13:05:00,33.2,30.5,29.73,WNW,293,0.9,1.3,90,0.01,,,0.18,WUHU216HW,2013-02-24 18:05:00,
2013-02-24 13:10:00,33.4,31.0,29.72,NNW,338,0.4,1.3,91,0.01,,,0.18,WUHU216HW,2013-02-24 18:10:00,
2013-02-24 13:15:00,33.2,30.8,29.72,WSW,248,0.4,1.3,91,0.01,,,0.18,WUHU216HW,2013-02-24 18:15:00,
2013-02-24 13:20:00,33.2,30.8,29.72,South,180,0.4,1.6,91,0.01,,,0.18,WUHU216HW,2013-02-24 18:20:00,
2013-02-24 13:25:00,33.2,30.8,29.72,South,180,0.4,1.6,91,0.01,,,0.18,WUHU216HW,2013-02-24 18:25:00,
2013-02-24 13:30:00,33.1,30.8,29.72,South,180,0.4,0.9,91,0.01,,,0.18,WUHU216HW,2013-02-24 18:30:00,
2013-02-24 13:35:00,33.1,30.7,29.73,South,180,0.7,1.1,91,0.01,,,0.18,WUHU216HW,2013-02-24 18:35:00,
2013-02-24 13:40:00,33.1,30.7,29.73,South,180,0.0,1.1,91,0.01,,,0.18,WUHU216HW,2013-02-24 18:40:00,
2013-02-24 13:45:00,33.1,30.7,29.73,South,180,0.2,0.7,91,0.01,,,0.18,WUHU216HW,2013-02-24 18:45:00,
2013-02-24 13:50:00,33.1,30.7,29.73,South,180,0.2,0.4,91,0.01,,,0.18,WUHU216HW,2013-02-24 18:50:00,
2013-02-24 13:55:00,33.1,30.7,29.72,South,180,0.0,0.4,91,0.00,,,0.18,WUHU216HW,2013-02-24 18:55:00,
2013-02-24 14:00:00,33.3,30.9,29.73,South,180,0.0,0.4,91,0.00,,,0.18,WUHU216HW,2013-02-24 19:00:00,
2013-02-24 14:05:00,33.3,30.9,29.73,South,180,0.0,0.4,91,0.00,,,0.18,WUHU216HW,2013-02-24 19:05:00,
2013-02-24 14:10:00,33.3,30.9,29.72,South,180,0.0,0.4,91,0.00,,,0.18,WUHU216HW,2013-02-24 19:10:00,
2013-02-24 14:15:00,33.4,31.0,29.72,South,180,0.0,0.2,91,0.00,,,0.18,WUHU216HW,2013-02-24 19:15:00,
2013-02-24 14:20:00,33.2,30.8,29.72,South,180,0.0,0.9,91,0.00,,,0.18,WUHU216HW,2013-02-24 19:20:00,
2013-02-24 14:25:00,33.2,30.8,29.72,South,180,0.0,0.9,91,0.00,,,0.18,WUHU216HW,2013-02-24 19:25:00,
2013-02-24 14:30:00,33.4,31.0,29.72,South,180,0.0,0.4,91,0.00,,,0.18,WUHU216HW,2013-02-24 19:30:00,
2013-02-24 14:35:00,33.0,30.6,29.72,South,180,0.0,0.4,91,0.00,,,0.18,WUHU216HW,2013-02-24 19:35:00,
2013-02-24 14:41:00,33.2,30.8,29.72,South,180,0.0,0.2,91,0.00,,,0.18,WUHU216HW,2013-02-24 19:41:00,
2013-02-24 14:46:00,33.1,30.7,29.72,South,180,0.0,0.4,91,0.00,,,0.18,WUHU216HW,2013-02-24 19:46:00,
2013-02-24 14:51:00,33.3,30.9,29.72,South,180,0.0,0.4,91,0.00,,,0.18,WUHU216HW,2013-02-24 19:51:00,
2013-02-24 14:56:00,33.3,30.6,29.72,South,180,0.4,1.1,90,0.00,,,0.18,WUHU216HW,2013-02-24 19:56:00,
2013-02-24 15:01:00,33.3,30.6,29.72,South,180,1.8,1.8,90,0.00,,,0.18,WUHU216HW,2013-02-24 20:01:00,
2013-02-24 15:06:00,33.1,30.4,29.72,WSW,248,0.4,2.2,90,0.00,,,0.18,WUHU216HW,2013-02-24 20:06:00,
2013-02-24 15:11:00,33.0,30.4,29.72,NE,45,0.4,2.7,90,0.00,,,0.18,WUHU216HW,2013-02-24 20:11:00,
2013-02-24 15:16:00,33.0,30.4,29.72,South,180,1.1,2.7,90,0.00,,,0.18,WUHU216HW,2013-02-24 20:16:00,
2013-02-24 15:21:00,33.0,30.3,29.73,ESE,113,0.4,2.7,90,0.01,,,0.18,WUHU216HW,2013-02-24 20:21:00,
2013-02-24 15:26:00,33.0,30.3,29.73,South,180,1.8,2.7,90,0.01,,,0.18,WUHU216HW,2013-02-24 20:26:00,
2013-02-24 15:31:00,32.9,30.0,29.73,NW,315,1.1,2.7,89,0.01,,,0.18,WUHU216HW,2013-02-24 20:31:00,
2013-02-24 15:36:00,32.9,30.0,29.73,NNW,338,1.1,2.9,89,0.01,,,0.18,WUHU216HW,2013-02-24 20:36:00,
2013-02-24 15:41:00,32.9,30.0,29.74,SSE,158,1.1,2.9,89,0.01,,,0.18,WUHU216HW,2013-02-24 20:41:00,
2013-02-24 15:46:00,32.9,29.9,29.74,SW,225,0.7,2.9,89,0.01,,,0.18,WUHU216HW,2013-02-24 20:46:00,
2013-02-24 15:51:00,32.6,29.7,29.74,ESE,113,1.1,2.2,89,0.01,,,0.18,WUHU216HW,2013-02-24 20:51:00,
2013-02-24 15:56:00,32.6,29.7,29.74,SSE,158,1.6,1.8,89,0.01,,,0.18,WUHU216HW,2013-02-24 20:56:00,
2013-02-24 16:01:00,32.6,29.7,29.74,WSW,248,0.2,1.8,89,0.01,,,0.18,WUHU216HW,2013-02-24 21:01:00,
2013-02-24 16:06:00,32.6,29.6,29.74,NW,315,1.1,1.6,89,0.01,,,0.18,WUHU216HW,2013-02-24 21:06:00,
2013-02-24 16:11:00,32.5,29.6,29.74,SSE,158,0.9,2.0,89,0.01,,,0.18,WUHU216HW,2013-02-24 21:11:00,
2013-02-24 16:16:00,32.5,29.6,29.74,South,180,1.8,2.0,89,0.00,,,0.18,WUHU216HW,2013-02-24 21:16:00,
2013-02-24 16:21:00,32.5,29.6,29.75,SW,225,0.7,1.8,89,0.00,,,0.18,WUHU216HW,2013-02-24 21:21:00,
2013-02-24 16:26:00,32.3,29.4,29.75,East,90,0.7,1.8,89,0.00,,,0.18,WUHU216HW,2013-02-24 21:26:00,
2013-02-24 16:31:00,32.3,29.4,29.75,SSE,158,1.1,1.3,89,0.00,,,0.18,WUHU216HW,2013-02-24 21:31:00,
2013-02-24 16:36:00,32.3,29.4,29.75,SW,225,0.4,1.3,89,0.00,,,0.18,WUHU216HW,2013-02-24 21:36:00,
2013-02-24 16:41:00,32.1,29.1,29.75,South,180,0.4,1.3,89,0.00,,,0.18,WUHU216HW,2013-02-24 21:41:00,
2013-02-24 16:46:00,32.0,29.1,29.75,SE,135,0.7,1.3,89,0.00,,,0.18,WUHU216HW,2013-02-24 21:46:00,
2013-02-24 16:51:00,32.0,29.1,29.76,WNW,293,0.9,1.3,89,0.00,,,0.18,WUHU216HW,2013-02-24 21:51:00,
2013-02-24 16:56:00,31.8,28.8,29.76,SW,225,0.4,1.3,89,0.00,,,0.18,WUHU216HW,2013-02-24 21:56:00,
2013-02-24 17:01:00,31.7,28.8,29.76,South,180,0.2,1.1,89,0.00,,,0.18,WUHU216HW,2013-02-24 22:01:00,
2013-02-24 17:06:00,31.5,28.6,29.76,South,180,0.4,1.1,89,0.00,,,0.18,WUHU216HW,2013-02-24 22:06:00,
2013-02-24 17:11:00,31.5,28.6,29.76,SW,225,0.0,1.1,89,0.00,,,0.18,WUHU216HW,2013-02-24 22:11:00,
2013-02-24 17:16:00,31.4,28.5,29.76,South,180,0.9,1.1,89,0.00,,,0.18,WUHU216HW,2013-02-24 22:16:00,
2013-02-24 17:21:00,31.2,28.3,29.77,NNW,338,0.7,2.0,89,0.00,,,0.18,WUHU216HW,2013-02-24 22:21:00,
2013-02-24 17:26:00,31.2,28.3,29.77,South,180,0.4,2.0,89,0.00,,,0.18,WUHU216HW,2013-02-24 22:26:00,
2013-02-24 17:31:00,31.1,28.2,29.77,South,180,0.4,1.1,89,0.00,,,0.18,WUHU216HW,2013-02-24 22:31:00,
2013-02-24 17:36:00,31.0,28.1,29.77,South,180,0.7,1.1,89,0.01,,,0.20,WUHU216HW,2013-02-24 22:36:00,
2013-02-24 17:41:00,31.0,28.1,29.77,South,180,0.4,1.1,89,0.01,,,0.20,WUHU216HW,2013-02-24 22:41:00,
2013-02-24 17:45:00,30.9,28.0,29.78,South,180,0.7,0.9,89,0.01,,,0.20,WUHU216HW,2013-02-24 22:45:00,
2013-02-24 17:50:00,30.9,28.0,29.78,South,180,0.4,1.1,89,0.01,,,0.20,WUHU216HW,2013-02-24 22:50:00,
2013-02-24 17:56:00,30.9,28.0,29.79,South,180,0.4,1.1,89,0.01,,,0.20,WUHU216HW,2013-02-24 22:56:00,
2013-02-24 18:01:00,30.8,27.9,29.79,South,180,0.4,0.9,89,0.01,,,0.20,WUHU216HW,2013-02-24 23:01:00,
2013-02-24 18:06:00,30.8,27.9,29.79,South,180,0.2,0.9,89,0.01,,,0.20,WUHU216HW,2013-02-24 23:06:00,
2013-02-24 18:11:00,30.8,27.9,29.79,South,180,0.4,1.1,89,0.01,,,0.20,WUHU216HW,2013-02-24 23:11:00,
2013-02-24 18:16:00,30.5,27.6,29.79,South,180,0.7,1.1,89,0.01,,,0.20,WUHU216HW,2013-02-24 23:16:00,
2013-02-24 18:21:00,30.5,27.6,29.79,South,180,0.7,1.1,89,0.01,,,0.20,WUHU216HW,2013-02-24 23:21:00,
2013-02-24 18:26:00,30.4,27.5,29.79,South,180,0.4,1.1,89,0.01,,,0.20,WUHU216HW,2013-02-24 23:26:00,
2013-02-24 18:31:00,30.4,27.5,29.80,South,180,1.1,1.1,89,0.01,,,0.20,WUHU216HW,2013-02-24 23:31:00,
2013-02-24 18:36:00,30.4,27.5,29.80,South,180,0.9,1.1,89,0.00,,,0.20,WUHU216HW,2013-02-24 23:36:00,
2013-02-24 18:41:00,30.3,27.4,29.80,South,180,0.4,1.1,89,0.00,,,0.20,WUHU216HW,2013-02-24 23:41:00,
2013-02-24 18:46:00,30.3,27.4,29.80,South,180,0.7,1.1,89,0.00,,,0.20,WUHU216HW,2013-02-24 23:46:00,
2013-02-24 18:51:00,30.1,27.2,29.80,South,180,0.4,1.1,89,0.00,,,0.20,WUHU216HW,2013-02-24 23:51:00,
2013-02-24 18:56:00,30.2,27.3,29.81,South,180,0.9,1.1,89,0.00,,,0.20,WUHU216HW,2013-02-24 23:56:00,
2013-02-24 19:01:00,30.2,27.3,29.81,South,180,0.4,1.1,89,0.00,,,0.20,WUHU216HW,2013-02-25 00:01:00,
2013-02-24 19:06:00,30.2,27.3,29.81,South,180,1.1,1.1,89,0.00,,,0.20,WUHU216HW,2013-02-25 00:06:00,
2013-02-24 19:11:00,30.0,27.1,29.82,South,180,0.4,1.1,89,0.00,,,0.20,WUHU216HW,2013-02-25 00:11:00,
2013-02-24 19:16:00,30.0,27.1,29.82,South,180,0.7,1.1,89,0.00,,,0.20,WUHU216HW,2013-02-25 00:16:00,
2013-02-24 19:21:00,30.0,27.1,29.82,South,180,0.2,1.1,89,0.00,,,0.20,WUHU216HW,2013-02-25 00:21:00,
2013-02-24 19:26:00,29.8,26.9,29.82,South,180,0.7,1.1,89,0.00,,,0.20,WUHU216HW,2013-02-25 00:26:00,
2013-02-24 19:31:00,29.8,26.9,29.82,South,180,0.2,0.9,89,0.00,,,0.20,WUHU216HW,2013-02-25 00:31:00,
2013-02-24 19:36:00,29.8,26.9,29.83,South,180,1.1,1.1,89,0.00,,,0.20,WUHU216HW,2013-02-25 00:36:00,
2013-02-24 19:41:00,29.8,26.9,29.83,South,180,0.4,1.1,89,0.00,,,0.20,WUHU216HW,2013-02-25 00:41:00,
2013-02-24 19:46:00,29.8,27.2,29.83,South,180,0.7,1.1,90,0.00,,,0.20,WUHU216HW,2013-02-25 00:46:00,
2013-02-24 19:51:00,29.8,27.2,29.83,South,180,0.4,0.9,90,0.00,,,0.20,WUHU216HW,2013-02-25 00:51:00,
2013-02-24 19:56:00,29.6,27.0,29.84,South,180,0.9,0.9,90,0.00,,,0.20,WUHU216HW,2013-02-25 00:56:00,
2013-02-24 20:01:00,29.6,27.0,29.84,South,180,0.4,0.9,90,0.00,,,0.20,WUHU216HW,2013-02-25 01:01:00,
2013-02-24 20:06:00,29.6,27.0,29.84,South,180,0.4,1.1,90,0.00,,,0.20,WUHU216HW,2013-02-25 01:06:00,
2013-02-24 20:11:00,29.6,27.0,29.84,South,180,0.2,1.1,90,0.00,,,0.20,WUHU216HW,2013-02-25 01:11:00,
2013-02-24 20:16:00,29.6,27.0,29.84,South,180,0.2,0.7,90,0.00,,,0.20,WUHU216HW,2013-02-25 01:16:00,
2013-02-24 20:21:00,29.6,27.0,29.84,South,180,0.2,0.7,90,0.00,,,0.20,WUHU216HW,2013-02-25 01:21:00,
2013-02-24 20:26:00,29.6,27.0,29.84,South,180,0.2,0.9,90,0.00,,,0.20,WUHU216HW,2013-02-25 01:26:00,
2013-02-24 20:31:00,29.5,26.9,29.85,South,180,0.0,0.9,90,0.00,,,0.20,WUHU216HW,2013-02-25 01:31:00,
2013-02-24 20:36:00,29.6,26.7,29.85,South,180,0.4,0.9,89,0.00,,,0.20,WUHU216HW,2013-02-25 01:36:00,
2013-02-24 20:41:00,29.6,26.7,29.85,South,180,0.2,0.9,89,0.00,,,0.20,WUHU216HW,2013-02-25 01:41:00,
2013-02-24 20:46:00,29.6,26.7,29.85,South,180,0.7,0.7,89,0.00,,,0.20,WUHU216HW,2013-02-25 01:46:00,
2013-02-24 20:51:00,29.5,26.6,29.85,South,180,0.4,0.7,89,0.00,,,0.20,WUHU216HW,2013-02-25 01:51:00,
2013-02-24 20:56:00,29.5,26.9,29.85,South,180,0.0,0.7,90,0.00,,,0.20,WUHU216HW,2013-02-25 01:56:00,
2013-02-24 21:01:00,29.5,26.6,29.85,South,180,0.4,0.7,89,0.00,,,0.20,WUHU216HW,2013-02-25 02:01:00,
2013-02-24 21:06:00,29.5,26.9,29.86,South,180,0.4,0.7,90,0.00,,,0.20,WUHU216HW,2013-02-25 02:06:00,
2013-02-24 21:11:00,29.5,26.9,29.86,South,180,0.4,0.4,90,0.00,,,0.20,WUHU216HW,2013-02-25 02:11:00,
2013-02-24 21:16:00,29.3,26.7,29.86,South,180,0.2,0.9,90,0.00,,,0.20,WUHU216HW,2013-02-25 02:16:00,
2013-02-24 21:20:00,29.3,26.4,29.86,South,180,0.4,0.9,89,0.00,,,0.20,WUHU216HW,2013-02-25 02:20:00,
2013-02-24 21:26:00,29.3,26.4,29.86,South,180,0.4,0.7,89,0.00,,,0.20,WUHU216HW,2013-02-25 02:26:00,
2013-02-24 21:31:00,29.3,26.4,29.86,South,180,0.2,0.7,89,0.00,,,0.20,WUHU216HW,2013-02-25 02:31:00,
2013-02-24 21:36:00,29.3,26.4,29.86,South,180,0.4,0.7,89,0.00,,,0.20,WUHU216HW,2013-02-25 02:36:00,
2013-02-24 21:41:00,29.3,26.4,29.87,South,180,0.4,0.7,89,0.00,,,0.20,WUHU216HW,2013-02-25 02:41:00,
2013-02-24 21:46:00,29.3,26.4,29.87,South,180,0.4,0.7,89,0.00,,,0.20,WUHU216HW,2013-02-25 02:46:00,
2013-02-24 21:51:00,29.3,26.4,29.87,South,180,0.2,0.9,89,0.00,,,0.20,WUHU216HW,2013-02-25 02:51:00,
2013-02-24 21:56:00,29.1,26.2,29.87,South,180,0.2,0.9,89,0.00,,,0.20,WUHU216HW,2013-02-25 02:56:00,
2013-02-24 22:01:00,29.1,26.2,29.87,South,180,0.4,0.7,89,0.00,,,0.20,WUHU216HW,2013-02-25 03:01:00,
2013-02-24 22:06:00,29.1,26.2,29.87,South,180,0.2,0.7,89,0.00,,,0.20,WUHU216HW,2013-02-25 03:06:00,
2013-02-24 22:11:00,29.3,26.4,29.87,South,180,0.4,0.4,89,0.00,,,0.20,WUHU216HW,2013-02-25 03:11:00,
2013-02-24 22:16:00,29.1,26.2,29.87,South,180,0.0,0.4,89,0.00,,,0.20,WUHU216HW,2013-02-25 03:16:00,
2013-02-24 22:21:00,29.3,26.4,29.87,South,180,0.2,0.4,89,0.00,,,0.20,WUHU216HW,2013-02-25 03:21:00,
2013-02-24 22:26:00,29.3,26.4,29.87,South,180,0.0,0.4,89,0.00,,,0.20,WUHU216HW,2013-02-25 03:26:00,
2013-02-24 22:31:00,29.3,26.4,29.88,South,180,0.2,0.9,89,0.00,,,0.20,WUHU216HW,2013-02-25 03:31:00,
2013-02-24 22:36:00,29.3,26.4,29.88,South,180,0.2,0.9,89,0.00,,,0.20,WUHU216HW,2013-02-25 03:36:00,
2013-02-24 22:41:00,29.3,26.4,29.88,South,180,0.2,0.4,89,0.00,,,0.20,WUHU216HW,2013-02-25 03:41:00,
2013-02-24 22:45:00,29.1,26.2,29.88,South,180,0.2,0.4,89,0.00,,,0.20,WUHU216HW,2013-02-25 03:45:00,
2013-02-24 22:51:00,29.3,26.4,29.88,South,180,0.2,0.4,89,0.00,,,0.20,WUHU216HW,2013-02-25 03:51:00,
2013-02-24 22:56:00,29.1,26.2,29.88,South,180,0.0,0.4,89,0.00,,,0.20,WUHU216HW,2013-02-25 03:56:00,
2013-02-24 23:01:00,29.1,26.2,29.88,South,180,0.4,0.4,89,0.00,,,0.20,WUHU216HW,2013-02-25 04:01:00,
2013-02-24 23:06:00,29.1,26.2,29.88,South,180,0.2,0.4,89,0.00,,,0.20,WUHU216HW,2013-02-25 04:06:00,
2013-02-24 23:11:00,29.1,26.2,29.88,South,180,0.0,0.4,89,0.00,,,0.20,WUHU216HW,2013-02-25 04:11:00,
2013-02-24 23:15:00,29.1,26.2,29.88,South,180,0.2,0.4,89,0.00,,,0.20,WUHU216HW,2013-02-25 04:15:00,
2013-02-24 23:20:00,29.1,26.2,29.89,South,180,0.2,0.4,89,0.00,,,0.20,WUHU216HW,2013-02-25 04:20:00,
2013-02-24 23:25:00,29.1,26.2,29.89,South,180,0.0,0.4,89,0.00,,,0.20,WUHU216HW,2013-02-25 04:25:00,
2013-02-24 23:30:00,29.1,26.5,29.89,South,180,0.0,0.4,90,0.00,,,0.20,WUHU216HW,2013-02-25 04:30:00,
2013-02-24 23:35:00,29.1,26.5,29.89,South,180,0.2,0.4,90,0.00,,,0.20,WUHU216HW,2013-02-25 04:35:00,
2013-02-24 23:41:00,28.9,26.0,29.89,South,180,0.2,0.4,89,0.00,,,0.20,WUHU216HW,2013-02-25 04:41:00,
2013-02-24 23:45:00,28.9,26.0,29.89,South,180,0.0,0.4,89,0.00,,,0.20,WUHU216HW,2013-02-25 04:45:00,
2013-02-24 23:51:00,29.1,26.2,29.90,South,180,0.0,0.4,89,0.00,,,0.20,WUHU216HW,2013-02-25 04:51:00,
2013-02-24 23:56:00,28.9,26.0,29.90,South,180,0.2,0.4,89,0.00,,,0.20,WUHU216HW,2013-02-25 04:56:00,